Location: Dover
(48.8500°N, 53.9833°W)
Time: 18:37:34
(UTC+00:00)

Iridium 4 Rocket - Pass Details

Date: 14 November 2025
Orbit: 579 x 888 km, 86.9° (Epoch: 10 December)

Event Time Altitude Azimuth Distance (km) Brightness Sun altitude
Rises 20:57:06 0° 194° (SSW) 3,299 7.2 -10.1°
Reaches altitude 10° 20:59:36 10° 198° (SSW) 2,326 6.5 -10.5°
Maximum altitude 21:04:41 54° 276° (W) 886 4.2 -11.3°
Drops below altitude 10° 21:09:22 10° 354° (N) 2,144 5.7 -12.0°
Sets 21:11:36 0° 360° (N) 3,017 6.4 -12.4°
